| time (UTC) | temp F | wind direction | speed knots | gust knots | rain 1hr in | rain 24hr in | rain mn in | humidity % | barometer mb |
| 20260503211556 | 71 | 271 | 3.5 | 8.7 | 0.00 | 0.00 | 0.00 | 57 | 1010.3 |
| 20260503210052 | 70 | 297 | 5.2 | 8.7 | 0.00 | 0.00 | 0.00 | 57 | 1010.4 |
| 20260503204549 | 69 | 278 | 3.5 | 11.3 | 0.00 | 0.00 | 0.00 | 60 | 1010.6 |
| 20260503203049 | 69 | 301 | 6.1 | 10.4 | 0.00 | 0.00 | 0.00 | 58 | 1010.7 |
| 20260503201549 | 69 | 318 | 5.2 | 10.4 | 0.00 | 0.00 | 0.00 | 58 | 1010.7 |
| 20260503200044 | 68 | 300 | 5.2 | 11.3 | 0.00 | 0.00 | 0.00 | 60 | 1011.0 |
| 20260503194545 | 68 | 277 | 4.3 | 9.6 | 0.00 | 0.00 | 0.00 | 62 | 1011.3 |
| 20260503193035 | 67 | 347 | 4.3 | 9.6 | 0.00 | 0.00 | 0.00 | 64 | 1011.5 |
| 20260503191533 | 67 | 295 | 3.5 | 9.6 | 0.00 | 0.00 | 0.00 | 65 | 1011.6 |
| 20260503190040 | 68 | 287 | 4.3 | 7.8 | 0.00 | 0.00 | 0.00 | 65 | 1011.7 |
| 20260503184528 | 67 | 300 | 1.7 | 7.8 | 0.00 | 0.00 | 0.00 | 69 | 1011.9 |
| 20260503183031 | 66 | 276 | 1.7 | 7.0 | 0.00 | 0.00 | 0.00 | 72 | 1012.0 |
| 20260503181541 | 66 | 302 | 2.6 | 6.1 | 0.00 | 0.00 | 0.00 | 71 | 1012.1 |
| 20260503180038 | 65 | 294 | 3.5 | 8.7 | 0.00 | 0.00 | 0.00 | 72 | 1012.2 |
| 20260503174519 | 64 | 306 | 1.7 | 5.2 | 0.00 | 0.00 | 0.00 | 74 | 1012.4 |
| 20260503173016 | 63 | 246 | 2.6 | 6.1 | 0.00 | 0.00 | 0.00 | 75 | 1012.4 |
| 20260503171522 | 63 | 290 | 0.9 | 6.1 | 0.00 | 0.00 | 0.00 | 76 | 1012.6 |
| 20260503081520 | 55 | 349 | 0.0 | 0.0 | 0.00 | 0.00 | 0.00 | 83 | 1012.9 |
| 20260503071509 | 57 | 349 | 0.0 | 0.0 | 0.00 | 0.00 | 0.00 | 79 | 1012.6 |
| 20260503054502 | 59 | 251 | 0.0 | 0.0 | 0.00 | 0.00 | 0.00 | 75 | 1012.5 |
| 20260503053008 | 60 | 251 | 0.0 | 0.9 | 0.00 | 0.00 | 0.00 | 74 | 1012.6 |
| 20260503051502 | 61 | 275 | 0.9 | 3.5 | 0.00 | 0.00 | 0.00 | 73 | 1012.5 |
| 20260503050002 | 60 | 309 | 0.0 | 2.6 | 0.00 | 0.00 | 0.00 | 76 | 1012.4 |
| 20260503044501 | 60 | 285 | 0.0 | 2.6 | 0.00 | 0.00 | 0.00 | 76 | 1012.3 |
| 20260503043101 | 61 | 272 | 0.0 | 2.6 | 0.00 | 0.00 | 0.00 | 76 | 1012.2 |
| 20260503041613 | 61 | 309 | 1.7 | 5.2 | 0.00 | 0.00 | 0.00 | 74 | 1012.0 |
| 20260503040100 | 62 | 308 | 1.7 | 5.2 | 0.00 | 0.00 | 0.00 | 71 | 1011.8 |
| 20260503034601 | 62 | 301 | 2.6 | 5.2 | 0.00 | 0.00 | 0.00 | 69 | 1011.6 |
| 20260503033116 | 63 | 313 | 0.0 | 4.3 | 0.00 | 0.00 | 0.00 | 70 | 1011.5 |
| 20260503031558 | 64 | 251 | 1.7 | 5.2 | 0.00 | 0.00 | 0.00 | 68 | 1011.4 |
| 20260503030106 | 65 | 292 | 0.9 | 4.3 | 0.00 | 0.00 | 0.00 | 66 | 1011.2 |
| 20260503024602 | 66 | 284 | 1.7 | 5.2 | 0.00 | 0.00 | 0.00 | 64 | 1011.2 |
| 20260503023057 | 66 | 278 | 1.7 | 4.3 | 0.00 | 0.00 | 0.00 | 65 | 1011.2 |
| 20260503021559 | 66 | 315 | 1.7 | 7.0 | 0.00 | 0.00 | 0.00 | 66 | 1011.2 |
| 20260503014555 | 69 | 312 | 2.6 | 7.8 | 0.00 | 0.00 | 0.00 | 57 | 1011.2 |
| 20260503013050 | 68 | 277 | 0.9 | 5.2 | 0.00 | 0.00 | 0.00 | 64 | 1011.3 |
| 20260503011601 | 67 | 295 | 4.3 | 7.8 | 0.00 | 0.00 | 0.00 | 64 | 1011.4 |
| 20260503010049 | 67 | 262 | 4.3 | 10.4 | 0.00 | 0.00 | 0.00 | 65 | 1011.5 |
| 20260503004550 | 67 | 283 | 4.3 | 9.6 | 0.00 | 0.00 | 0.00 | 65 | 1011.5 |
| 20260503003046 | 68 | 308 | 4.3 | 8.7 | 0.00 | 0.00 | 0.00 | 63 | 1011.5 |
| 20260503001546 | 68 | 295 | 1.7 | 8.7 | 0.00 | 0.00 | 0.00 | 64 | 1011.6 |
| 20260503000044 | 68 | 295 | 3.5 | 10.4 | 0.00 | 0.00 | 0.00 | 62 | 1011.7 |
| 20260502234550 | 68 | 348 | 2.6 | 11.3 | 0.00 | 0.00 | 0.00 | 62 | 1011.8 |
| 20260502233039 | 68 | 304 | 3.5 | 10.4 | 0.00 | 0.00 | 0.00 | 63 | 1012.1 |
| 20260502231538 | 66 | 311 | 3.5 | 9.6 | 0.00 | 0.00 | 0.00 | 68 | 1012.2 |
| 20260502230032 | 66 | 295 | 4.3 | 9.6 | 0.00 | 0.00 | 0.00 | 68 | 1012.4 |
| 20260502224530 | 66 | 306 | 5.2 | 10.4 | 0.00 | 0.00 | 0.00 | 69 | 1012.6 |
| 20260502223028 | 66 | 292 | 5.2 | 11.3 | 0.00 | 0.00 | 0.00 | 69 | 1012.9 |
| 20260502221526 | 66 | 264 | 3.5 | 9.6 | 0.00 | 0.00 | 0.00 | 70 | 1013.1 |
| 20260502220027 | 66 | 295 | 3.5 | 11.3 | 0.00 | 0.00 | 0.00 | 71 | 1013.2 |
| 20260502214520 | 66 | 255 | 3.5 | 9.6 | 0.00 | 0.00 | 0.00 | 70 | 1013.4 |
| 20260502213027 | 66 | 275 | 4.3 | 11.3 | 0.00 | 0.00 | 0.00 | 69 | 1013.5 |